Location: *
(42.0175°N, 9.4056°E)
Time: 04:30:25
(UTC+00:00)

ARGOS - Pass Details

Date: 25 August 2019
Orbit: 820 x 835 km, 98.5° (Epoch: 17 September)

Event Time Altitude Azimuth Distance (km) Brightness Sun altitude
Exits shadow 19:55:18 10° 184° (S) 2,402 5.3 -18.8°
Maximum altitude 20:00:28 51° 260° (W) 1,023 3.9 -19.6°
Drops below altitude 10° 20:05:42 10° 336° (NNW) 2,425 6.4 -20.4°
Sets 20:08:07 0° 342° (NNW) 3,362 7.2 -20.8°
